Location: Newark
(37.8444°N, 127.0614°E)
Time: 20:58:07
(UTC+00:00)

XW-2F - Pass Details

Date: 22 January 2020
Orbit: 501 x 524 km, 97.5° (Epoch: 23 February)

Event Time Altitude Azimuth Distance (km) Brightness Sun altitude
Rises 09:34:23 0° 195° (SSW) 2,634 ? -10.3°
Reaches altitude 10° 09:36:48 10° 210° (SSW) 1,748 ? -10.8°
Maximum altitude 09:39:50 23° 264° (W) 1,134 ? -11.3°
Drops below altitude 10° 09:42:53 10° 318° (NW) 1,750 ? -11.9°
Sets 09:45:19 0° 334° (NNW) 2,638 ? -12.4°
